Weather Roundup
Issued by NWS Corpus Christi, TX

Home | Current Version | Previous Version | Text Only | Print | Product List | Glossary On
Versions: 1 2 3 4 5 6 7 8 9 10 11 12 13 14 15 16 17 18 19 20 21 22 23 24 25 26 27 28 29 30 31 32 33 34 35 36 37 38 39 40 41 42 43 44 45 46 47 48 49 50
000
ASUS44 KCRP 020910
HRRCRP

SOUTH TEXAS REGIONAL WEATHER ROUNDUP
NATIONAL WEATHER SERVICE CORPUS CHRISTI TX
400 AM CDT SUN AUG 02 2015


TXZ229>244-021000-
...CORPUS CHRISTI AREA OBSERVATIONS...

CITY           SKY/WX    TMP DP  RH WIND       PRES   REMARKS
CORPUS CHRISTI MOCLDY    76  74  93 SW6       29.88F
NAS CORPUS CHR PTCLDY    79  77  94 W6        29.87F
ROCKPORT       CLEAR     78  75  90 CALM      29.88F
KINGSVILLE NAS MOCLDY    77  75  94 SW6       29.88F
ALICE          CLEAR     76  73  91 SW6       29.89F
FALFURRIAS     CLEAR     73  69  86 CALM      29.89F
$$

...VICTORIA AREA OBSERVATIONS...

CITY           SKY/WX    TMP DP  RH WIND       PRES   REMARKS
VICTORIA       CLEAR     73  73 100 NW3       29.90F
BEEVILLE       FAIR      76  74  96 CALM      29.90F
PLEASANTON     CLEAR     72  66  83 CALM      29.92S
SAN ANTONIO    CLEAR     78  67  68 W3        29.94S
$$

...LAREDO AREA OBSERVATIONS...

CITY           SKY/WX    TMP DP  RH WIND       PRES   REMARKS
LAREDO         CLEAR     79  67  66 S5        29.91F
COTULLA        CLEAR     77  68  73 CALM      29.91S
DEL RIO        CLEAR     77  63  61 E3        29.92R
MCALLEN        CLEAR     79  71  76 CALM      29.89F
HEBBRONVILLE     N/A     71  65  82 CALM      29.91F
$$

...OTHER TEXAS OBSERVATIONS...

CITY           SKY/WX    TMP DP  RH WIND       PRES   REMARKS
BROWNSVILLE    PTCLDY    77  73  87 S3        29.87F
HOUSTON        PTCLDY    74  68  81 CALM      29.90F
COL. STATION   CLEAR     76  62  62 CALM      29.91F
AUSTIN         CLEAR     69  66  90 CALM      29.92F
WACO           CLOUDY    77  63  61 N3        29.93F
FORT WORTH     CLOUDY    84  57  39 SE7       29.94S
WICHITA FALLS  MOCLDY    75  70  84 E6        29.94F
LUBBOCK        MOCLDY    68  65  90 CALM      30.04F
EL PASO        MOCLDY    79  57  46 E8        30.06F
$$

...MARINE OBSERVATIONS...

STATION/POSITION TIME  SKY/WX   TEMP    WIND        PRES    VSBY  WAVE   SWELL
                                AIR SEA DIR/SP/G                  HT/PER HT/PER
                 (UTC)          (F)     (DEG/KT/KT) (MB)    (MI)  (FT/S) (FT/S)
PORT ARANSAS     0900            82 84   CALM  /  1 1012.3F
BUOY 90 E PORT A 0850            85 86  130/  4/  6 1011.6F         2/ 5   2/ 5
BUOY 45 SE BAFFI 0850            84 85  140/  6/  6 1011.1F         1/ 5
BUOY 200 E PT IS 0850            84 85  220/ 14/ 16 1011.7F         2/ 4
BUOY 15 E GALVES 0850            86 86   CALM  /  2 1011.6F         1/ 4
$$


USA.gov is the U.S. government's official web portal to all federal, state and local government web resources and services.